User: anonymous   Login
Location: ASU Dark Sky Observatory
(36.2504°N, 81.4125°W)
Time: 01:17:23
(UTC-04:00)
Language:

ETS-7 - Orbit

View from above orbital plane
View from above orbital plane
View from above satellite
View from above satellite

Ground track
Ground track

The orbit data is extracted from the following two-line orbital elements,

1 25064U 97074B   15182.55109213  .00039327  00000-0  23450-3 0  9998
2 25064 034.9506 265.4093 0003530 123.9048 359.3218 15.76792368980432
Epoch (UTC): 01 July 2015 13:13:34
Eccentricity: 0.0003530
inclination: 34.9506°
perigee height: 337 km
apogee height: 342 km
right ascension of ascending node: 265.4093°
argument of perigee: 123.9048°
revolutions per day: 15.76792368
mean anomaly at epoch: 359.3218°
orbit number at epoch: 98043

The dashed part of the orbit path shows where the satellite is in the earth's shadow,  

DLR